STARLINK-2637, 48356

Orbit data source: Space-Track

STARLINK-2637, 48356 is a payload satellite owned by SpaceX/Seattle (US) in LEO that was launched on Tue, 04 May 2021 UTC via an FALCON 9 launch vehicle from the Air Force Eastern Test Range (AFETR). Payload-class satellites include a variety of spacecraft equipped with specific instruments for various scientific and technological missions. These include communications satellites like Starlink; space stations such as the ISS; scientific satellites like the Hubble; Earth observation satellites from companies like Planet Labs, Umbra, and HawkEye 360; GPS; miniature CubeSats for education and research; and military/defense satellites.

Loading next visibility...
Identifier
48356, 2021-038D
Orbit
LEO
Country
Flag of USUS
Related business
Manufacturer
SpaceX/Seattle
Mission
Operational Commercial Communications
Bus & Motor
STARLINK, Unknown motor
Mass
260 kg wet, ~248 kg dry
Launch date (UTC)
2021-05-04 (5 years ago)
Launch vehicle
FALCON 9
Launch site
Air Force Eastern Test Range (AFETR)
Object type
Payload
Rocket body
Debris
Shape & HBR
Box + 1 Pan, 10.1 m
Radar Cross Section
13.562 m², Large (>1 m²)

Expand to show TLE details & history
Last TLE update: 2 days ago

TLE from 2 days ago
0 STARLINK-2637
1 48356U 21038D   26171.46250407 -.00000249  00000-0  37403-5 0  9993
2 48356  53.1586 240.2872 0001133  77.3097 282.8031 15.31706147282823
Epoch: 2026-06-20T11:06Z
TLE epoch observation values (Epoch: 2026-06-20T11:06:00.351Z)
Latitude
-0.00003°
Longitude
165.10894°
Altitude
471.45 km
Speed
7.632 km/s
True Right ascension
16h 01m 08s
True Declination
0° 00' 00"
Sunlit
Object was in full shadow at epoch
Visualization orbit readout
Latitude
Unknown
Longitude
Unknown
Altitude
Unknown
Speed
Unknown
Apparent Right ascension
Unknown
Apparent Declination
Unknown
Sunlit
N/A
Visualization observer readout
Local Sidereal Time
23:07:35
Azimuth
Unknown
Elevation
Unknown
Doppler factor
Unknown
Orbital elements
Apogee altitude
471.754 km
Perigee altitude
470.202 km
Semi-major axis
6,849.115 km
Eccentricity
0.00011
Inclination
53.1586°
RAAN
240.2872°
Arg. of periapsis
77.3097°
True anomaly
282.79044°
Mean anomaly
282.8031°
Eccentric anomaly
282.79677°
Mean motion
3.82905 °/min
Orbital period
94.02 mins
BSTAR
0.0000037403
Loading maneuver chart data...
Computing Atmospheric mass density...

Documentation

Showing up to 5 results
|